Time,TemperatureF,DewpointF,PressureIn,WindDirection,WindDirectionDegrees,WindSpeedMPH,WindSpeedGustMPH,Humidity,HourlyPrecipIn,Conditions,Clouds,dailyrainin,SoftwareType,DateUTC
2013-01-15 00:02:00,14.0,11.0,30.47,West,274,0.0,-999.0,87,-99.99,,,-99.99,,2013-01-15 06:02:00,
2013-01-15 00:12:00,14.0,11.0,30.47,West,274,0.0,-999.0,87,-99.99,,,-99.99,,2013-01-15 06:12:00,
2013-01-15 00:22:00,15.0,11.0,30.47,West,274,0.0,-999.0,85,-99.99,,,-99.99,,2013-01-15 06:22:00,
2013-01-15 00:33:00,15.0,11.0,30.47,West,274,0.0,-999.0,84,-99.99,,,-99.99,,2013-01-15 06:33:00,
2013-01-15 00:42:00,15.0,11.0,30.47,West,274,0.0,-999.0,84,-99.99,,,-99.99,,2013-01-15 06:42:00,
2013-01-15 00:52:00,14.0,10.0,30.47,West,274,0.0,-999.0,84,-99.99,,,-99.99,,2013-01-15 06:52:00,
2013-01-15 01:02:00,14.0,10.0,30.47,West,274,0.0,-999.0,84,-99.99,,,-99.99,,2013-01-15 07:02:00,
2013-01-15 01:12:00,14.0,10.0,30.47,West,274,0.0,-999.0,84,-99.99,,,-99.99,,2013-01-15 07:12:00,
2013-01-15 01:22:00,14.0,10.0,30.47,West,274,0.0,-999.0,84,-99.99,,,-99.99,,2013-01-15 07:22:00,
2013-01-15 01:32:00,13.0,10.0,30.47,West,274,0.0,-999.0,86,-99.99,,,-99.99,,2013-01-15 07:32:00,
2013-01-15 01:42:00,13.0,10.0,30.47,West,274,0.0,-999.0,86,-99.99,,,-99.99,,2013-01-15 07:42:00,
2013-01-15 01:52:00,13.0,10.0,30.47,West,274,0.0,-999.0,87,-99.99,,,-99.99,,2013-01-15 07:52:00,
2013-01-15 02:02:00,13.0,10.0,30.47,West,274,0.0,-999.0,88,-99.99,,,-99.99,,2013-01-15 08:02:00,
2013-01-15 02:12:00,13.0,10.0,30.47,West,274,0.0,-999.0,88,-99.99,,,-99.99,,2013-01-15 08:12:00,
2013-01-15 02:22:00,12.0,9.0,30.47,West,274,0.0,-999.0,88,-99.99,,,-99.99,,2013-01-15 08:22:00,
2013-01-15 02:33:00,12.0,9.0,30.48,West,274,0.0,-999.0,88,-99.99,,,-99.99,,2013-01-15 08:33:00,
2013-01-15 02:42:00,12.0,9.0,30.48,West,274,0.0,-999.0,88,-99.99,,,-99.99,,2013-01-15 08:42:00,
2013-01-15 02:52:00,12.0,9.0,30.47,West,274,0.0,-999.0,89,-99.99,,,-99.99,,2013-01-15 08:52:00,
2013-01-15 03:02:00,12.0,9.0,30.47,West,274,0.0,-999.0,88,-99.99,,,-99.99,,2013-01-15 09:02:00,
2013-01-15 03:12:00,12.0,9.0,30.47,West,274,0.0,-999.0,88,-99.99,,,-99.99,,2013-01-15 09:12:00,
2013-01-15 03:22:00,12.0,9.0,30.47,West,274,0.0,-999.0,89,-99.99,,,-99.99,,2013-01-15 09:22:00,
2013-01-15 03:33:00,12.0,9.0,30.47,West,274,0.0,-999.0,89,-99.99,,,-99.99,,2013-01-15 09:33:00,
2013-01-15 03:42:00,12.0,9.0,30.47,West,274,0.0,-999.0,89,-99.99,,,-99.99,,2013-01-15 09:42:00,
2013-01-15 03:52:00,12.0,9.0,30.46,West,274,0.0,-999.0,89,-99.99,,,-99.99,,2013-01-15 09:52:00,
2013-01-15 04:02:00,12.0,9.0,30.46,West,274,0.0,-999.0,89,-99.99,,,-99.99,,2013-01-15 10:02:00,
2013-01-15 04:12:00,12.0,9.0,30.46,West,274,0.0,-999.0,89,-99.99,,,-99.99,,2013-01-15 10:12:00,
2013-01-15 04:22:00,12.0,9.0,30.46,West,274,0.0,-999.0,89,-99.99,,,-99.99,,2013-01-15 10:22:00,
2013-01-15 04:32:00,11.0,8.0,30.45,West,274,0.0,-999.0,89,-99.99,,,-99.99,,2013-01-15 10:32:00,
2013-01-15 04:42:00,11.0,8.0,30.45,West,274,0.0,-999.0,89,-99.99,,,-99.99,,2013-01-15 10:42:00,
2013-01-15 04:52:00,11.0,8.0,30.45,West,274,0.0,-999.0,89,-99.99,,,-99.99,,2013-01-15 10:52:00,
2013-01-15 05:02:00,11.0,8.0,30.45,West,274,0.0,-999.0,89,-99.99,,,-99.99,,2013-01-15 11:02:00,
2013-01-15 05:12:00,11.0,8.0,30.45,West,274,0.0,-999.0,89,-99.99,,,-99.99,,2013-01-15 11:12:00,
2013-01-15 05:22:00,11.0,8.0,30.44,West,274,0.0,-999.0,89,-99.99,,,-99.99,,2013-01-15 11:22:00,
2013-01-15 05:33:00,11.0,9.0,30.44,West,274,0.0,-999.0,90,-99.99,,,-99.99,,2013-01-15 11:33:00,
2013-01-15 05:42:00,11.0,9.0,30.44,West,274,0.0,-999.0,90,-99.99,,,-99.99,,2013-01-15 11:42:00,
2013-01-15 05:52:00,11.0,8.0,30.44,West,274,0.0,-999.0,89,-99.99,,,-99.99,,2013-01-15 11:52:00,
2013-01-15 06:03:00,11.0,9.0,30.43,West,274,0.0,-999.0,90,-99.99,,,-99.99,,2013-01-15 12:03:00,
2013-01-15 06:12:00,11.0,9.0,30.43,West,274,0.0,-999.0,90,-99.99,,,-99.99,,2013-01-15 12:12:00,
2013-01-15 06:22:00,11.0,9.0,30.43,West,274,0.0,-999.0,90,-99.99,,,-99.99,,2013-01-15 12:22:00,
2013-01-15 06:33:00,11.0,9.0,30.43,West,274,0.0,-999.0,90,-99.99,,,-99.99,,2013-01-15 12:33:00,
2013-01-15 06:42:00,11.0,9.0,30.43,West,274,0.0,-999.0,90,-99.99,,,-99.99,,2013-01-15 12:42:00,
2013-01-15 06:53:00,11.0,9.0,30.44,West,274,0.0,-999.0,90,-99.99,,,-99.99,,2013-01-15 12:53:00,
2013-01-15 07:03:00,11.0,9.0,30.44,West,274,0.0,-999.0,90,-99.99,,,-99.99,,2013-01-15 13:03:00,
2013-01-15 07:12:00,11.0,9.0,30.44,West,274,0.0,-999.0,90,-99.99,,,-99.99,,2013-01-15 13:12:00,
2013-01-15 07:23:00,11.0,9.0,30.44,West,274,0.0,-999.0,91,-99.99,,,-99.99,,2013-01-15 13:23:00,
2013-01-15 07:33:00,11.0,9.0,30.44,West,274,0.0,-999.0,90,-99.99,,,-99.99,,2013-01-15 13:33:00,
2013-01-15 07:43:00,11.0,9.0,30.44,West,274,0.0,-999.0,90,-99.99,,,-99.99,,2013-01-15 13:43:00,
2013-01-15 07:53:00,11.0,9.0,30.44,West,274,0.0,-999.0,90,-99.99,,,-99.99,,2013-01-15 13:53:00,
2013-01-15 08:02:00,11.0,9.0,30.45,West,274,0.0,-999.0,91,-99.99,,,-99.99,,2013-01-15 14:02:00,
2013-01-15 08:12:00,11.0,9.0,30.45,West,274,0.0,-999.0,91,-99.99,,,-99.99,,2013-01-15 14:12:00,
2013-01-15 08:23:00,11.0,9.0,30.45,West,274,0.0,-999.0,91,-99.99,,,-99.99,,2013-01-15 14:23:00,
2013-01-15 08:33:00,11.0,9.0,30.46,West,274,0.0,-999.0,90,-99.99,,,-99.99,,2013-01-15 14:33:00,
2013-01-15 08:43:00,11.0,9.0,30.46,West,274,0.0,-999.0,90,-99.99,,,-99.99,,2013-01-15 14:43:00,
2013-01-15 08:53:00,11.0,9.0,30.46,West,274,0.0,-999.0,90,-99.99,,,-99.99,,2013-01-15 14:53:00,
2013-01-15 09:03:00,13.0,11.0,30.47,West,274,0.0,-999.0,91,-99.99,,,-99.99,,2013-01-15 15:03:00,
2013-01-15 09:12:00,13.0,11.0,30.47,West,274,0.0,-999.0,91,-99.99,,,-99.99,,2013-01-15 15:12:00,
2013-01-15 09:23:00,16.0,13.0,30.47,West,274,0.0,-999.0,88,-99.99,,,-99.99,,2013-01-15 15:23:00,
2013-01-15 09:33:00,18.0,14.0,30.47,West,274,0.0,-999.0,83,-99.99,,,-99.99,,2013-01-15 15:33:00,
2013-01-15 09:43:00,18.0,14.0,30.47,West,274,0.0,-999.0,83,-99.99,,,-99.99,,2013-01-15 15:43:00,
2013-01-15 09:53:00,20.0,15.0,30.47,West,274,0.0,-999.0,81,-99.99,,,-99.99,,2013-01-15 15:53:00,
2013-01-15 10:03:00,21.0,15.0,30.46,West,274,0.0,-999.0,77,-99.99,,,-99.99,,2013-01-15 16:03:00,
2013-01-15 10:12:00,21.0,15.0,30.46,West,274,0.0,-999.0,77,-99.99,,,-99.99,,2013-01-15 16:12:00,
2013-01-15 10:22:00,22.0,16.0,30.46,West,274,0.0,-999.0,78,-99.99,,,-99.99,,2013-01-15 16:22:00,
2013-01-15 10:33:00,23.0,16.0,30.44,NE,39,1.0,-999.0,75,-99.99,,,-99.99,,2013-01-15 16:33:00,
2013-01-15 10:42:00,23.0,16.0,30.44,NE,39,1.0,-999.0,75,-99.99,,,-99.99,,2013-01-15 16:42:00,
2013-01-15 10:53:00,23.0,17.0,30.43,NE,39,0.0,-999.0,76,-99.99,,,-99.99,,2013-01-15 16:53:00,
2013-01-15 11:03:00,24.0,17.0,30.42,East,82,1.0,-999.0,75,-99.99,,,-99.99,,2013-01-15 17:03:00,
2013-01-15 11:12:00,24.0,17.0,30.42,East,82,1.0,-999.0,75,-99.99,,,-99.99,,2013-01-15 17:12:00,
2013-01-15 11:22:00,25.0,18.0,30.43,East,82,0.0,-999.0,75,-99.99,,,-99.99,,2013-01-15 17:22:00,
2013-01-15 11:33:00,25.0,17.0,30.42,East,82,2.0,-999.0,70,-99.99,,,-99.99,,2013-01-15 17:33:00,
2013-01-15 11:42:00,25.0,17.0,30.42,East,82,2.0,-999.0,70,-99.99,,,-99.99,,2013-01-15 17:42:00,
2013-01-15 11:53:00,26.0,17.0,30.41,East,83,1.0,-999.0,69,-99.99,,,-99.99,,2013-01-15 17:53:00,
2013-01-15 12:03:00,26.0,16.0,30.41,East,86,1.0,-999.0,66,-99.99,,,-99.99,,2013-01-15 18:03:00,
2013-01-15 12:13:00,26.0,16.0,30.41,East,86,1.0,-999.0,66,-99.99,,,-99.99,,2013-01-15 18:13:00,
2013-01-15 12:23:00,27.0,17.0,30.39,East,86,1.0,-999.0,66,-99.99,,,-99.99,,2013-01-15 18:23:00,
2013-01-15 12:33:00,27.0,18.0,30.38,East,81,1.0,-999.0,68,-99.99,,,-99.99,,2013-01-15 18:33:00,
2013-01-15 12:43:00,27.0,18.0,30.38,East,81,1.0,-999.0,68,-99.99,,,-99.99,,2013-01-15 18:43:00,
2013-01-15 12:53:00,27.0,18.0,30.38,East,84,1.0,-999.0,67,-99.99,,,-99.99,,2013-01-15 18:53:00,
2013-01-15 13:03:00,28.0,17.0,30.36,East,84,0.0,-999.0,64,-99.99,,,-99.99,,2013-01-15 19:03:00,
2013-01-15 13:12:00,28.0,17.0,30.36,East,84,0.0,-999.0,64,-99.99,,,-99.99,,2013-01-15 19:12:00,
2013-01-15 13:23:00,28.0,17.0,30.36,East,85,1.0,-999.0,64,-99.99,,,-99.99,,2013-01-15 19:23:00,
2013-01-15 13:33:00,28.0,18.0,30.35,East,85,1.0,-999.0,66,-99.99,,,-99.99,,2013-01-15 19:33:00,
2013-01-15 13:42:00,28.0,18.0,30.35,East,85,1.0,-999.0,66,-99.99,,,-99.99,,2013-01-15 19:42:00,
2013-01-15 13:53:00,28.0,18.0,30.35,East,85,0.0,-999.0,66,-99.99,,,-99.99,,2013-01-15 19:53:00,
2013-01-15 14:03:00,28.0,18.0,30.35,East,85,0.0,-999.0,65,-99.99,,,-99.99,,2013-01-15 20:03:00,
2013-01-15 14:12:00,28.0,18.0,30.35,East,85,0.0,-999.0,65,-99.99,,,-99.99,,2013-01-15 20:12:00,
2013-01-15 14:23:00,29.0,18.0,30.34,East,90,0.0,-999.0,63,-99.99,,,-99.99,,2013-01-15 20:23:00,
2013-01-15 14:33:00,29.0,18.0,30.33,East,90,1.0,-999.0,64,-99.99,,,-99.99,,2013-01-15 20:33:00,
2013-01-15 14:43:00,29.0,18.0,30.33,East,90,1.0,-999.0,64,-99.99,,,-99.99,,2013-01-15 20:43:00,
2013-01-15 14:52:00,29.0,18.0,30.33,East,90,1.0,-999.0,64,-99.99,,,-99.99,,2013-01-15 20:52:00,
2013-01-15 15:03:00,29.0,18.0,30.33,SSE,153,2.0,-999.0,62,-99.99,,,-99.99,,2013-01-15 21:03:00,
2013-01-15 15:13:00,29.0,18.0,30.33,SSE,153,2.0,-999.0,62,-99.99,,,-99.99,,2013-01-15 21:13:00,
2013-01-15 15:23:00,29.0,18.0,30.33,SE,146,0.0,-999.0,63,-99.99,,,-99.99,,2013-01-15 21:23:00,
2013-01-15 15:33:00,30.0,19.0,30.33,SE,146,0.0,-999.0,62,-99.99,,,-99.99,,2013-01-15 21:33:00,
2013-01-15 15:43:00,30.0,19.0,30.33,SE,146,0.0,-999.0,62,-99.99,,,-99.99,,2013-01-15 21:43:00,
2013-01-15 15:52:00,30.0,17.0,30.33,SSE,150,0.0,-999.0,59,-99.99,,,-99.99,,2013-01-15 21:52:00,
2013-01-15 16:03:00,30.0,19.0,30.33,SSE,150,0.0,-999.0,62,-99.99,,,-99.99,,2013-01-15 22:03:00,
2013-01-15 16:12:00,30.0,19.0,30.33,SSE,150,0.0,-999.0,62,-99.99,,,-99.99,,2013-01-15 22:12:00,
2013-01-15 16:23:00,30.0,19.0,30.33,SSE,150,0.0,-999.0,62,-99.99,,,-99.99,,2013-01-15 22:23:00,
2013-01-15 16:33:00,29.0,17.0,30.32,SSE,152,0.0,-999.0,61,-99.99,,,-99.99,,2013-01-15 22:33:00,
2013-01-15 16:43:00,29.0,17.0,30.32,SSE,152,0.0,-999.0,61,-99.99,,,-99.99,,2013-01-15 22:43:00,
2013-01-15 16:52:00,29.0,17.0,30.32,SSE,152,0.0,-999.0,61,-99.99,,,-99.99,,2013-01-15 22:52:00,
2013-01-15 17:02:00,28.0,17.0,30.33,SSE,152,0.0,-999.0,64,-99.99,,,-99.99,,2013-01-15 23:02:00,
2013-01-15 17:13:00,28.0,17.0,30.33,SSE,152,0.0,-999.0,64,-99.99,,,-99.99,,2013-01-15 23:13:00,
2013-01-15 17:22:00,27.0,18.0,30.32,SSE,152,0.0,-999.0,67,-99.99,,,-99.99,,2013-01-15 23:22:00,
2013-01-15 17:33:00,27.0,18.0,30.32,SSE,152,0.0,-999.0,67,-99.99,,,-99.99,,2013-01-15 23:33:00,
2013-01-15 17:43:00,27.0,18.0,30.32,SSE,152,0.0,-999.0,67,-99.99,,,-99.99,,2013-01-15 23:43:00,
2013-01-15 17:53:00,26.0,19.0,30.32,SSE,152,0.0,-999.0,74,-99.99,,,-99.99,,2013-01-15 23:53:00,
2013-01-15 18:02:00,25.0,19.0,30.32,SSE,153,0.0,-999.0,76,-99.99,,,-99.99,,2013-01-16 00:02:00,
2013-01-15 18:12:00,25.0,19.0,30.32,SSE,153,0.0,-999.0,76,-99.99,,,-99.99,,2013-01-16 00:12:00,
2013-01-15 18:22:00,24.0,18.0,30.31,SSE,152,0.0,-999.0,78,-99.99,,,-99.99,,2013-01-16 00:22:00,
2013-01-15 18:33:00,23.0,18.0,30.30,SSE,152,0.0,-999.0,80,-99.99,,,-99.99,,2013-01-16 00:33:00,
2013-01-15 18:43:00,23.0,18.0,30.30,SSE,152,0.0,-999.0,80,-99.99,,,-99.99,,2013-01-16 00:43:00,
2013-01-15 18:52:00,23.0,17.0,30.29,SSE,152,0.0,-999.0,78,-99.99,,,-99.99,,2013-01-16 00:52:00,
2013-01-15 19:03:00,23.0,18.0,30.28,SSE,152,0.0,-999.0,81,-99.99,,,-99.99,,2013-01-16 01:03:00,
2013-01-15 19:12:00,23.0,18.0,30.28,SSE,152,0.0,-999.0,81,-99.99,,,-99.99,,2013-01-16 01:12:00,
2013-01-15 19:22:00,22.0,17.0,30.27,SSE,152,0.0,-999.0,81,-99.99,,,-99.99,,2013-01-16 01:22:00,
2013-01-15 19:33:00,22.0,17.0,30.26,SSE,152,0.0,-999.0,81,-99.99,,,-99.99,,2013-01-16 01:33:00,
2013-01-15 19:42:00,22.0,17.0,30.26,SSE,152,0.0,-999.0,81,-99.99,,,-99.99,,2013-01-16 01:42:00,
2013-01-15 19:52:00,21.0,16.0,30.25,SSE,152,0.0,-999.0,81,-99.99,,,-99.99,,2013-01-16 01:52:00,
2013-01-15 20:03:00,21.0,17.0,30.25,SSE,152,0.0,-999.0,84,-99.99,,,-99.99,,2013-01-16 02:03:00,
2013-01-15 20:12:00,21.0,17.0,30.25,SSE,152,0.0,-999.0,84,-99.99,,,-99.99,,2013-01-16 02:12:00,
2013-01-15 20:22:00,20.0,16.0,30.24,SSE,152,0.0,-999.0,86,-99.99,,,-99.99,,2013-01-16 02:22:00,
2013-01-15 20:32:00,19.0,15.0,30.24,SSE,152,0.0,-999.0,85,-99.99,,,-99.99,,2013-01-16 02:32:00,
2013-01-15 20:42:00,19.0,15.0,30.24,SSE,152,0.0,-999.0,85,-99.99,,,-99.99,,2013-01-16 02:42:00,
2013-01-15 20:52:00,19.0,15.0,30.23,SSE,152,0.0,-999.0,85,-99.99,,,-99.99,,2013-01-16 02:52:00,
2013-01-15 21:03:00,19.0,15.0,30.22,SSE,152,0.0,-999.0,85,-99.99,,,-99.99,,2013-01-16 03:03:00,
2013-01-15 21:12:00,19.0,15.0,30.22,SSE,152,0.0,-999.0,85,-99.99,,,-99.99,,2013-01-16 03:12:00,
2013-01-15 21:22:00,19.0,15.0,30.22,SSE,152,0.0,-999.0,85,-99.99,,,-99.99,,2013-01-16 03:22:00,
2013-01-15 21:32:00,19.0,16.0,30.21,SSE,152,0.0,-999.0,86,-99.99,,,-99.99,,2013-01-16 03:32:00,
2013-01-15 21:43:00,19.0,16.0,30.21,SSE,152,0.0,-999.0,86,-99.99,,,-99.99,,2013-01-16 03:43:00,
2013-01-15 21:52:00,19.0,16.0,30.21,SSE,152,0.0,-999.0,86,-99.99,,,-99.99,,2013-01-16 03:52:00,
2013-01-15 22:02:00,18.0,15.0,30.20,SSE,152,0.0,-999.0,86,-99.99,,,-99.99,,2013-01-16 04:02:00,
2013-01-15 22:12:00,18.0,15.0,30.20,SSE,152,0.0,-999.0,86,-99.99,,,-99.99,,2013-01-16 04:12:00,
2013-01-15 22:22:00,17.0,14.0,30.20,SSE,152,0.0,-999.0,87,-99.99,,,-99.99,,2013-01-16 04:22:00,
2013-01-15 22:32:00,17.0,14.0,30.19,SSE,152,0.0,-999.0,89,-99.99,,,-99.99,,2013-01-16 04:32:00,
2013-01-15 22:42:00,17.0,14.0,30.19,SSE,152,0.0,-999.0,89,-99.99,,,-99.99,,2013-01-16 04:42:00,
2013-01-15 22:52:00,18.0,15.0,30.19,SSE,152,0.0,-999.0,88,-99.99,,,-99.99,,2013-01-16 04:52:00,
2013-01-15 23:03:00,17.0,14.0,30.19,SSE,152,0.0,-999.0,88,-99.99,,,-99.99,,2013-01-16 05:03:00,
2013-01-15 23:12:00,17.0,14.0,30.19,SSE,152,0.0,-999.0,88,-99.99,,,-99.99,,2013-01-16 05:12:00,
2013-01-15 23:22:00,16.0,13.0,30.18,SSE,152,0.0,-999.0,88,-99.99,,,-99.99,,2013-01-16 05:22:00,
2013-01-15 23:32:00,16.0,13.0,30.18,SSE,152,0.0,-999.0,88,-99.99,,,-99.99,,2013-01-16 05:32:00,
2013-01-15 23:42:00,16.0,13.0,30.18,SSE,152,0.0,-999.0,88,-99.99,,,-99.99,,2013-01-16 05:42:00,
2013-01-15 23:53:00,15.0,12.0,30.17,SSE,152,0.0,-999.0,89,-99.99,,,-99.99,,2013-01-16 05:53:00,